Temp
11 11 11 12 11 12 13 12 14 13 12 11 11 11 12 11 11 10 9 8 8 8 8 8 8 8 8 8 8 8 8 8 8 8 8 9 9 9 9 9 9 9 9 9 9 9 9 9 9
11 11 11 11 11 13 13 13 13 12 12 12 11 11 11 11 11 10 9 8 8 8 8 9 8 8 9 8 8 7 8 8 8 9 9 9 9 9 9 9 9 9 8 8 8 9 9 9 9
11 12 12 11 11 12 13 13 13 12 12 12 11 9 10 10 10 11 9 8 8 8 9 9 9 9 9 9 8 8 8 8 9 9 9 9 9 9 9 9 8 9 9 9 9 9 9 9 9
11 11 12 11 11 13 13 12 13 12 10 10 10 9 9 9 10 9 9 9 8 9 9 9 9 9 9 9 9 9 8 9 8 9 9 9 9 9 9 9 9 9 9 9 9 9 9 9 9
11 10 11 11 11 11 13 13 12 12 11 11 11 9 9 8 8 8 8 9 8 9 9 9 9 9 9 9 9 9 9 9 9 9 9 9 9 9 9 9 9 9 9 9 9 9 9 9 9
10 11 10 9 10 10 13 13 12 12 11 10 10 9 8 8 8 9 9 8 8 9 9 9 9 9 9 8 8 8 9 9 9 9 9 9 9 9 9 9 9 9 9 9 9 9 9 9 9
9 9 10 9 9 9 12 12 12 10 10 10 10 9 8 8 9 9 9 9 8 8 8 9 9 9 8 8 8 8 9 9 9 9 9 9 9 9 9 9 9 10 9 9 9 9 9 9 9
9 8 10 9 9 10 11 11 12 11 10 10 11 10 8 8 8 8 8 9 8 7 8 8 9 9 8 8 8 8 9 9 9 9 9 9 8 9 9 9 9 9 9 9 9 9 9 9 9
9 9 10 9 10 10 11 11 11 11 10 10 10 10 9 8 8 8 9 8 8 8 8 8 8 8 8 9 8 8 9 9 9 9 10 9 9 9 9 9 9 9 9 9 9 8 9 9 9
10 11 11 11 10 11 10 10 12 11 10 10 10 9 9 8 8 8 8 7 7 8 9 8 8 8 8 8 8 8 8 8 9 9 9 9 9 9 9 9 9 9 9 9 9 9 9 9 9
11 12 12 11 10 10 9 10 12 10 11 12 11 8 8 8 8 8 8 8 8 8 8 8 8 8 8 8 8 8 8 9 9 9 9 9 9 9 9 9 9 9 9 9 9 8 9 9 9
11 12 11 11 9 9 8 9 10 10 10 9 10 9 9 8 8 8 7 8 8 8 8 7 8 8 8 8 8 8 8 8 9 9 9 9 9 9 9 8 9 9 8 9 9 8 9 10 10
10 10 10 10 10 10 10 9 9 11 10 9 9 9 9 9 9 8 8 8 9 8 8 7 8 7 8 8 8 8 8 8 9 9 9 9 9 8 9 8 8 9 8 9 9 9 9 9 10
11 12 10 9 10 10 10 10 10 11 11 10 10 9 9 8 9 9 8 8 8 8 8 8 8 7 7 8 8 8 8 8 8 8 9 9 8 8 9 7 9 9 9 8 8 8 8 9 10
12 13 11 10 10 10 10 10 11 11 10 10 10 9 9 8 8 8 8 8 8 8 7 8 8 8 7 7 8 8 7 8 8 8 9 9 9 9 8 8 9 8 7 8 8 9 9 10 10
13 12 11 10 10 9 10 10 10 10 10 10 10 9 10 8 9 8 8 8 8 8 8 8 8 7 7 6 7 7 7 8 8 8 8 9 8 8 7 8 8 8 7 7 7 7 9 9 10
13 13 12 11 11 10 10 11 11 10 10 10 10 9 9 9 9 9 9 8 8 8 8 9 9 7 7 7 7 7 8 7 8 8 9 8 8 8 8 8 8 9 8 7 8 8 8 8 9
14 14 12 11 12 11 11 11 11 10 10 10 10 10 9 9 8 8 8 7 8 8 8 8 8 8 8 9 8 8 6 7 8 8 8 8 8 9 8 8 9 9 9 9 8 8 7 7 8
14 14 13 12 12 12 12 12 12 12 11 10 9 10 10 10 9 9 8 8 8 8 8 8 8 7 8 8 8 8 8 8 9 9 9 7 8 9 9 9 10 8 9 10 8 9 7 7 8
14 14 12 11 11 11 12 12 12 12 12 11 9 9 10 10 8 8 8 9 9 8 8 8 8 7 8 7 8 8 9 8 9 10 9 9 9 8 9 9 9 9 10 9 9 9 8 8 8
15 14 14 13 12 13 12 12 12 12 12 11 10 9 9 9 9 8 8 9 9 8 9 8 8 8 8 8 8 8 7 8 9 9 8 8 8 9 9 8 9 9 8 9 10 10 10 8 8
15 13 14 13 13 13 13 12 13 13 12 12 10 10 9 9 10 9 9 8 9 8 8 9 9 9 9 8 9 9 9 9 8 9 9 9 9 9 8 10 10 8 8 9 10 9 10 9 8
15 14 14 14 14 14 14 14 14 12 12 13 12 11 10 10 10 9 9 8 9 8 9 9 9 10 10 9 9 10 8 8 7 8 9 9 8 9 9 10 9 9 10 9 9 9 10 10 9
15 14 14 14 14 13 14 13 12 12 14 13 12 11 10 10 11 10 9 9 9 8 9 9 9 10 10 10 10 10 9 8 8 8 9 8 8 9 9 9 10 9 9 8 9 10 10 9 8
14 15 14 11 11 11 14 14 13 13 13 13 13 12 11 10 11 10 11 9 9 9 9 9 10 10 10 10 10 9 9 10 9 10 10 9 8 8 9 9 9 9 9 10 10 9 10 9 9
14 14 14 12 10 11 14 12 12 11 11 11 12 12 10 9 11 10 10 9 9 10 9 9 10 10 10 10 10 9 10 9 9 9 8 8 9 8 9 9 8 9 9 9 10 10 9 9 9
14 14 15 15 14 12 11 12 13 13 11 12 11 11 12 11 9 10 10 10 9 10 11 11 10 10 10 10 10 10 10 10 9 8 9 9 9 8 9 9 9 10 10 10 10 10 9 9 10
14 14 14 13 10 10 9 10 12 12 12 11 11 11 10 11 10 10 10 10 11 9 10 11 11 10 11 10 10 10 10 10 9 9 10 9 9 9 10 9 9 9 10 10 10 10 10 10 10
13 14 13 12 11 8 8 10 10 10 9 11 10 10 10 10 10 9 10 10 10 9 9 10 10 11 10 11 11 10 10 10 10 10 9 9 9 10 10 9 9 9 9 9 10 9 10 10 10
13 12 12 12 10 10 9 9 10 10 9 9 8 9 10 9 10 10 10 10 10 9 9 10 9 10 11 11 11 10 10 10 10 10 9 9 9 10 9 9 10 9 9 10 10 10 10 10 10
Height
3162 3163 3159 3159 3164 3161 3162 3164 3164 3164 3162 3161 3160 3162 3165 3163 3163 3170 3174 3176 3180 3182 3182 3183 3184 3184 3184 3185 3186 3188 3190 3190 3192 3193 3193 3196 3198 3199 3200 3202 3203 3204 3206 3207 3208 3209 3210 3211 3211
3163 3163 3160 3164 3166 3163 3164 3166 3165 3166 3167 3165 3160 3160 3162 3162 3163 3167 3172 3177 3181 3183 3183 3185 3186 3187 3187 3188 3189 3189 3191 3193 3195 3196 3198 3199 3200 3202 3203 3204 3205 3207 3208 3209 3210 3211 3213 3214 3215
3164 3165 3163 3166 3165 3166 3166 3166 3169 3168 3168 3166 3163 3165 3163 3164 3169 3169 3174 3180 3184 3184 3186 3187 3188 3189 3190 3190 3191 3192 3194 3196 3198 3200 3201 3202 3203 3204 3205 3207 3207 3209 3210 3212 3213 3214 3215 3217 3217
3164 3165 3168 3166 3165 3166 3167 3168 3170 3166 3168 3167 3167 3168 3167 3169 3173 3176 3179 3183 3185 3187 3187 3189 3189 3190 3191 3191 3193 3194 3197 3199 3201 3202 3204 3205 3207 3208 3208 3209 3211 3212 3213 3214 3215 3216 3217 3219 3220
3163 3164 3166 3166 3167 3168 3170 3169 3171 3169 3170 3169 3171 3173 3171 3174 3176 3179 3184 3186 3187 3189 3189 3190 3191 3192 3193 3194 3195 3197 3199 3201 3203 3205 3207 3208 3209 3211 3211 3212 3213 3214 3214 3216 3217 3218 3219 3220 3222
3163 3164 3166 3167 3167 3166 3168 3170 3172 3172 3169 3171 3173 3175 3176 3177 3178 3181 3184 3185 3189 3191 3192 3193 3193 3194 3195 3196 3198 3199 3201 3203 3205 3207 3208 3210 3211 3213 3214 3215 3216 3217 3218 3218 3220 3221 3222 3223 3223
3164 3163 3166 3168 3162 3164 3170 3172 3171 3171 3174 3175 3174 3176 3181 3177 3180 3181 3183 3184 3190 3192 3194 3195 3195 3197 3198 3198 3199 3201 3203 3205 3206 3208 3210 3213 3215 3216 3217 3218 3220 3220 3221 3221 3222 3223 3224 3226 3227
3152 3169 3171 3166 3166 3169 3169 3169 3173 3174 3174 3175 3176 3177 3181 3181 3183 3182 3184 3184 3188 3190 3194 3196 3197 3199 3200 3200 3201 3203 3205 3206 3208 3210 3212 3214 3216 3218 3219 3221 3222 3223 3224 3225 3226 3226 3228 3228 3230
3165 3171 3170 3166 3165 3168 3167 3170 3174 3175 3173 3176 3177 3178 3181 3182 3185 3187 3190 3189 3188 3193 3194 3197 3199 3201 3202 3203 3204 3205 3208 3209 3210 3212 3214 3216 3218 3221 3223 3224 3225 3226 3227 3227 3229 3230 3231 3232 3233
3170 3169 3165 3165 3167 3167 3162 3172 3175 3180 3176 3177 3178 3182 3184 3185 3187 3188 3188 3189 3192 3193 3196 3198 3200 3201 3203 3205 3206 3208 3210 3213 3212 3213 3216 3218 3220 3222 3225 3226 3228 3229 3230 3230 3232 3233 3234 3235 3236
3161 3165 3164 3165 3165 3165 3169 3172 3175 3178 3178 3177 3177 3183 3186 3188 3190 3192 3189 3191 3192 3193 3197 3198 3199 3201 3204 3206 3208 3210 3212 3214 3215 3216 3219 3220 3221 3224 3227 3229 3230 3231 3233 3234 3235 3236 3237 3238 3240
3164 3163 3164 3165 3167 3166 3158 3170 3175 3179 3179 3179 3179 3182 3185 3187 3188 3190 3189 3192 3195 3196 3197 3197 3200 3202 3204 3207 3210 3212 3213 3215 3216 3218 3219 3220 3222 3225 3227 3229 3231 3232 3235 3236 3237 3238 3239 3240 3242
3157 3164 3169 3168 3167 3168 3167 3170 3177 3178 3178 3180 3182 3184 3184 3187 3189 3190 3190 3191 3194 3197 3197 3199 3201 3198 3203 3207 3209 3213 3214 3216 3217 3220 3221 3222 3224 3226 3229 3231 3233 3234 3234 3236 3238 3239 3241 3242 3243
3157 3165 3166 3170 3171 3172 3172 3174 3173 3176 3177 3181 3183 3184 3185 3186 3191 3190 3191 3193 3192 3194 3195 3196 3199 3200 3204 3207 3208 3212 3215 3216 3219 3220 3222 3224 3224 3227 3228 3230 3232 3235 3237 3239 3240 3242 3242 3244 3245
3166 3165 3165 3172 3171 3173 3176 3175 3176 3177 3177 3181 3182 3183 3186 3186 3189 3191 3193 3194 3194 3195 3196 3197 3198 3200 3204 3206 3209 3211 3213 3216 3220 3221 3224 3225 3226 3227 3230 3232 3234 3237 3239 3241 3242 3243 3243 3244 3246
3164 3164 3167 3171 3173 3175 3178 3177 3176 3177 3178 3178 3181 3184 3185 3187 3187 3192 3194 3193 3194 3194 3195 3198 3198 3200 3201 3205 3208 3212 3214 3215 3219 3222 3225 3226 3228 3230 3230 3233 3235 3236 3236 3240 3243 3245 3244 3246 3248
3162 3164 3167 3171 3172 3171 3175 3176 3175 3173 3176 3177 3178 3181 3184 3185 3187 3189 3192 3192 3194 3193 3193 3196 3196 3200 3202 3205 3209 3212 3215 3216 3219 3221 3225 3227 3229 3231 3231 3231 3234 3237 3239 3239 3242 3245 3245 3248 3251
3163 3164 3166 3168 3169 3170 3171 3172 3175 3174 3174 3174 3175 3178 3181 3183 3184 3188 3190 3190 3191 3192 3193 3193 3196 3199 3202 3207 3209 3213 3215 3217 3220 3221 3223 3227 3231 3232 3233 3233 3236 3237 3240 3240 3241 3243 3247 3248 3250
3162 3163 3165 3166 3168 3166 3168 3169 3170 3171 3172 3172 3171 3175 3178 3183 3184 3188 3189 3188 3192 3194 3194 3195 3197 3200 3201 3203 3208 3213 3215 3218 3219 3221 3223 3226 3230 3232 3230 3236 3238 3237 3239 3240 3241 3243 3245 3247 3250
3159 3161 3163 3167 3167 3168 3169 3167 3166 3168 3168 3169 3170 3171 3176 3180 3180 3184 3188 3187 3192 3193 3193 3195 3197 3198 3201 3204 3209 3213 3216 3218 3219 3220 3223 3226 3231 3233 3231 3237 3239 3238 3239 3239 3242 3245 3246 3248 3250
3157 3159 3159 3163 3164 3167 3168 3166 3162 3165 3165 3166 3169 3170 3174 3177 3180 3182 3187 3186 3191 3194 3196 3196 3197 3197 3199 3203 3208 3211 3215 3217 3219 3220 3222 3225 3229 3232 3233 3237 3239 3239 3241 3241 3244 3246 3249 3249 3251
3156 3159 3158 3161 3164 3163 3163 3160 3158 3159 3162 3161 3163 3165 3169 3173 3178 3182 3185 3185 3191 3194 3196 3197 3197 3197 3199 3202 3207 3209 3213 3216 3217 3218 3221 3224 3226 3228 3229 3231 3236 3238 3240 3242 3242 3245 3246 3249 3251
3155 3155 3157 3158 3159 3159 3158 3158 3154 3159 3158 3156 3156 3158 3165 3170 3174 3179 3182 3184 3188 3192 3195 3196 3197 3198 3200 3202 3206 3209 3212 3214 3216 3218 3220 3221 3224 3225 3227 3227 3231 3234 3239 3240 3243 3244 3246 3247 3251
3152 3153 3154 3154 3156 3156 3156 3157 3154 3154 3153 3152 3152 3154 3158 3165 3170 3175 3180 3183 3184 3188 3192 3195 3196 3198 3199 3203 3206 3208 3211 3213 3214 3216 3218 3220 3223 3226 3227 3227 3231 3234 3237 3241 3241 3244 3245 3247 3251
3151 3153 3153 3156 3156 3155 3153 3152 3151 3150 3152 3152 3149 3150 3154 3158 3166 3172 3177 3179 3180 3184 3188 3193 3194 3197 3198 3202 3205 3207 3208 3211 3212 3215 3217 3220 3223 3224 3225 3227 3231 3234 3237 3241 3242 3243 3245 3245 3249
3150 3151 3152 3155 3155 3155 3152 3151 3152 3150 3149 3149 3152 3150 3152 3156 3162 3167 3172 3177 3177 3182 3185 3191 3193 3195 3197 3200 3203 3205 3207 3209 3213 3215 3217 3218 3221 3223 3225 3227 3229 3233 3235 3236 3239 3242 3244 3244 3246
3147 3148 3150 3148 3147 3149 3151 3148 3151 3149 3149 3148 3149 3153 3154 3155 3159 3163 3167 3174 3177 3177 3181 3187 3190 3192 3194 3197 3201 3203 3205 3209 3211 3213 3217 3217 3220 3221 3224 3226 3227 3230 3233 3235 3237 3240 3241 3241 3243
3146 3147 3148 3146 3149 3149 3149 3148 3147 3147 3146 3146 3145 3148 3149 3157 3158 3161 3165 3169 3174 3176 3177 3183 3186 3190 3192 3194 3197 3200 3203 3207 3209 3212 3215 3216 3218 3220 3222 3226 3227 3230 3231 3234 3235 3235 3236 3238 3240
3145 3147 3146 3148 3150 3151 3154 3152 3148 3146 3144 3141 3142 3144 3145 3153 3157 3158 3161 3165 3168 3170 3175 3180 3183 3186 3189 3191 3194 3197 3199 3203 3208 3211 3214 3215 3217 3219 3221 3223 3226 3227 3228 3230 3233 3233 3234 3235 3236
3145 3146 3145 3147 3150 3150 3152 3148 3147 3146 3144 3142 3143 3139 3141 3146 3153 3157 3160 3162 3164 3168 3173 3175 3180 3183 3186 3189 3192 3195 3198 3199 3203 3207 3211 3213 3215 3217 3220 3222 3223 3224 3227 3227 3229 3230 3230 3231 3233
Wind_Speed
6 5 4 11 7 5 14 16 18 13 20 21 18 12 10 9 17 13 23 20 14 18 20 22 22 26 26 23 23 22 20 22 21 22 22 21 22 21 22 22 22 22 21 20 20 21 20 19 18
7 5 5 11 3 7 11 14 20 13 14 7 17 11 12 12 7 27 23 16 17 15 17 18 20 22 24 24 23 23 20 22 21 21 21 21 22 21 20 21 21 21 21 21 21 19 18 17 17
5 1 12 6 1 9 13 9 16 9 8 7 17 12 13 23 21 23 19 16 16 17 16 17 20 19 20 22 21 21 20 20 20 20 21 22 21 20 20 20 21 20 20 18 18 17 17 17 17
7 11 11 4 8 5 17 17 15 9 24 21 23 19 14 7 18 19 18 22 11 16 17 17 19 20 20 20 20 19 20 19 19 19 20 21 20 19 19 21 20 19 18 17 16 17 17 17 17
5 4 3 8 4 11 18 20 12 13 9 17 10 24 20 11 13 13 12 16 15 14 15 17 18 19 19 19 19 18 18 18 18 19 20 20 19 17 19 19 19 18 17 17 17 18 20 19 18
2 1 6 9 8 11 21 14 12 8 22 22 14 20 19 12 13 15 12 13 12 11 12 15 16 17 18 18 18 17 17 18 18 19 19 19 20 19 19 19 18 17 18 19 20 20 21 19 19
5 4 3 6 9 7 13 7 6 7 26 14 13 19 22 15 14 10 5 16 12 9 12 14 15 15 17 17 17 17 17 17 18 19 18 18 18 19 18 20 18 18 19 21 21 22 21 20 21
9 7 6 22 12 6 15 11 6 8 13 12 6 17 24 17 7 10 2 15 16 14 13 12 14 15 14 16 17 17 16 17 17 18 19 17 14 14 17 17 17 20 20 21 22 21 21 21 20
5 3 8 8 9 6 8 22 14 5 24 6 2 11 22 18 17 12 9 8 5 14 12 14 14 14 16 17 17 15 15 16 16 16 17 18 17 16 18 18 17 20 21 22 22 21 20 19 18
3 4 7 9 11 14 4 14 19 10 15 12 13 20 23 19 13 9 4 8 6 3 6 11 11 15 15 15 15 15 13 13 15 16 17 17 17 17 17 19 19 19 19 20 20 20 19 19 18
13 11 3 9 9 15 13 19 20 14 10 4 8 23 22 18 17 9 10 2 2 2 6 14 12 16 15 13 12 14 14 13 12 14 22 19 18 16 16 18 17 18 17 15 16 16 14 18 18
14 3 7 2 5 6 15 16 15 10 12 14 10 15 19 17 19 13 22 9 7 4 5 5 13 17 16 15 16 13 14 13 14 14 18 18 17 15 16 16 17 18 15 12 12 11 11 21 21
9 11 7 9 6 7 14 21 11 15 22 16 17 9 13 13 11 13 15 13 9 9 3 5 12 6 18 19 16 15 15 16 14 12 13 15 17 14 16 15 15 18 15 16 13 16 13 14 17
3 6 6 9 2 3 12 17 17 14 16 22 11 12 14 17 17 13 15 13 13 10 9 4 8 10 17 14 16 14 17 18 15 13 11 15 14 16 19 17 16 16 14 16 14 13 14 11 12
1 6 8 14 0 7 12 14 15 17 26 19 9 13 12 12 17 13 12 15 14 11 6 10 13 9 15 17 13 16 16 15 14 11 13 14 14 17 13 17 15 16 14 11 12 14 16 13 11
3 6 12 6 6 1 11 16 15 15 24 22 19 18 12 11 10 17 11 12 13 14 10 9 12 11 8 26 23 20 18 17 16 15 13 13 11 15 15 16 13 18 22 21 17 13 14 12 12
9 8 8 5 7 6 14 6 13 19 26 25 24 21 17 17 12 7 4 10 7 10 7 9 15 13 14 16 27 17 14 13 16 14 13 12 13 14 18 16 17 21 21 19 16 14 13 12 11
8 7 6 5 4 7 7 7 7 14 24 27 25 23 19 17 12 10 13 9 4 9 2 4 12 13 17 20 24 22 20 16 18 16 14 15 13 12 15 11 16 20 18 18 9 16 8 14 10
3 6 13 4 3 13 4 5 4 3 21 25 23 24 17 13 14 9 12 12 6 7 9 7 12 16 20 19 17 16 16 17 17 19 18 11 9 8 11 11 17 18 18 14 17 20 20 15 14
14 6 12 8 4 9 12 10 9 9 7 18 30 25 21 22 25 13 10 16 8 6 10 10 10 16 22 22 20 16 15 12 12 13 13 10 8 12 10 10 10 16 16 17 19 19 22 22 18
7 15 9 3 9 12 11 14 18 13 11 19 28 29 24 23 20 20 19 13 7 7 6 13 9 12 22 25 23 20 19 15 11 11 13 11 9 11 10 9 13 17 13 18 16 13 16 20 19
10 13 3 2 6 11 16 6 18 18 12 18 29 34 32 29 26 24 22 17 9 9 6 12 11 11 21 26 24 21 19 14 12 10 12 14 12 8 7 7 11 16 18 20 19 12 17 17 18
6 4 7 8 11 11 13 13 16 16 20 13 22 30 37 29 33 26 22 18 12 15 7 8 13 14 17 23 24 20 19 16 11 10 13 12 11 9 9 8 5 9 12 13 15 14 14 17 19
14 10 8 9 10 6 9 9 10 18 14 16 19 23 38 33 36 21 21 24 26 16 14 8 16 16 17 18 19 19 17 16 17 15 12 13 10 9 8 7 7 13 14 18 12 15 20 18 13
15 13 6 3 1 4 10 11 4 7 10 11 7 14 23 39 33 27 28 27 27 23 14 10 18 18 18 17 16 17 17 13 13 10 11 10 13 10 9 10 9 9 12 17 18 15 16 13 14
14 14 15 1 4 11 15 6 3 9 10 13 8 6 16 41 34 30 27 29 29 19 17 15 13 21 19 17 16 16 16 14 8 12 14 12 15 14 12 14 13 13 13 14 16 19 19 20 19
11 15 15 20 13 8 4 2 8 11 13 14 19 13 18 34 41 26 24 23 25 22 11 10 13 23 21 19 19 18 17 17 16 13 15 14 11 8 14 13 11 12 14 14 14 18 19 20 22
12 14 13 8 4 3 2 2 16 11 12 10 22 23 23 30 38 31 22 24 27 26 19 15 14 15 23 23 21 21 20 18 18 16 13 16 15 14 11 6 6 7 9 8 10 14 15 18 20
5 11 6 2 4 1 3 8 11 7 10 19 21 21 18 34 36 28 27 18 24 36 30 21 15 12 23 24 24 24 22 21 21 19 15 13 14 11 8 10 11 8 8 9 9 10 13 12 13
2 10 7 2 1 2 3 5 10 13 10 1 8 17 24 28 35 35 31 25 27 33 30 27 21 18 18 25 25 25 25 24 22 19 17 17 14 14 12 12 11 9 9 10 9 10 11 11 10
Wind_Direction
130 133 195 114 85 76 96 123 105 92 79 83 81 107 130 91 134 128 115 106 112 112 111 109 105 106 109 104 105 104 111 111 110 109 107 108 109 109 109 109 109 108 106 105 105 104 104 105 104
140 193 256 139 105 119 83 125 96 92 95 80 74 79 94 103 107 127 120 114 127 120 116 117 115 115 113 115 110 104 107 107 108 108 110 111 109 108 109 112 113 111 109 107 104 105 105 105 105
133 143 81 133 240 140 120 119 132 115 95 118 94 72 101 115 137 134 127 123 127 121 114 119 123 119 117 114 115 111 110 110 113 115 115 114 112 110 109 116 113 112 106 105 105 105 106 103 102
107 94 147 97 126 160 144 124 119 124 110 105 111 95 96 56 108 119 112 130 121 124 119 119 120 119 118 114 112 111 112 113 111 110 114 116 114 113 112 111 111 112 101 97 96 99 99 100 101
96 76 163 175 284 158 131 143 123 128 122 114 151 117 120 128 94 101 121 125 128 127 124 124 120 119 118 117 117 116 116 117 116 115 116 116 114 117 115 113 107 105 92 95 98 98 96 100 102
156 99 104 81 131 69 122 143 87 129 119 135 109 124 118 120 144 115 130 82 127 129 130 124 121 122 121 117 116 117 119 121 122 122 117 117 115 115 118 111 108 104 98 100 102 101 99 100 97
261 164 197 259 178 53 108 130 131 122 130 143 118 126 122 143 155 128 54 124 112 160 138 129 125 126 124 120 119 120 122 123 124 127 127 123 124 121 113 109 107 105 106 106 106 105 103 101 99
232 195 260 254 291 73 131 87 107 206 203 149 154 133 144 162 153 97 31 152 109 118 142 139 132 129 126 124 123 125 126 126 130 133 134 129 120 116 117 115 104 109 112 110 108 105 107 105 103
72 67 132 167 193 108 142 129 118 105 144 150 142 136 146 156 142 153 163 158 161 139 146 155 140 137 137 135 128 125 126 131 134 134 134 130 125 119 119 118 114 117 115 113 111 110 106 105 102
281 23 224 143 156 178 224 127 122 122 151 149 136 151 146 157 176 165 209 162 222 159 116 165 155 145 140 137 134 134 130 131 136 132 130 133 127 122 127 119 120 120 121 121 119 115 112 107 106
322 357 85 193 220 224 219 179 136 107 165 217 170 150 151 157 169 181 200 124 167 334 187 151 171 156 153 148 141 134 136 136 133 142 140 138 132 126 121 120 124 123 122 118 116 116 118 114 111
255 336 37 67 163 246 136 190 115 154 135 140 166 156 156 163 172 200 191 202 229 185 237 292 176 166 161 153 142 139 140 136 141 138 141 141 130 128 129 127 129 125 111 119 126 123 135 135 124
150 111 88 114 158 92 94 114 111 131 180 154 148 167 172 166 159 154 201 196 257 256 259 184 171 190 170 169 164 156 140 142 140 142 148 147 137 130 128 123 145 141 122 117 108 115 115 115 120
106 295 136 132 197 164 187 166 145 144 135 153 204 171 178 190 148 171 165 222 252 271 291 195 175 194 186 178 172 161 150 146 142 155 151 152 147 150 142 144 154 134 121 115 111 122 119 129 138
85 338 133 139 258 136 166 160 157 160 150 161 168 169 185 179 168 174 220 237 264 247 264 199 184 200 192 194 180 156 157 140 154 183 151 148 153 151 140 157 150 120 113 111 114 130 111 110 130
246 124 149 162 132 75 187 195 175 177 164 161 167 185 206 180 253 199 215 252 252 261 241 203 169 174 167 185 156 149 160 148 168 166 152 162 151 161 156 136 141 149 128 121 126 117 108 116 128
271 197 205 199 290 257 195 241 188 192 171 172 172 192 191 213 188 225 229 247 282 242 198 180 139 164 156 158 183 164 140 175 169 175 156 169 164 169 148 161 164 159 140 153 137 136 126 122 117
277 204 340 313 239 195 212 212 208 202 192 183 189 199 208 194 187 235 239 246 320 224 202 165 173 156 168 169 161 179 167 178 167 172 174 179 182 179 160 167 172 170 163 173 136 145 138 116 105
273 257 222 212 96 184 226 258 204 234 212 199 201 200 194 189 204 204 220 233 214 256 269 222 204 188 178 179 176 180 173 176 176 182 177 179 169 183 206 157 188 172 152 165 169 164 150 157 140
244 236 165 156 193 209 243 271 292 249 268 221 204 209 195 199 190 182 218 223 258 318 289 227 204 194 183 182 186 192 187 189 180 190 173 181 168 170 174 177 189 181 167 175 175 167 165 149 154
234 237 201 218 169 216 213 255 262 246 226 211 210 215 206 194 184 189 202 246 231 255 287 232 207 183 182 183 184 184 184 190 177 164 154 165 185 193 179 167 174 186 179 186 169 166 179 175 174
227 178 177 153 225 251 235 244 247 246 235 222 212 216 214 212 209 196 197 225 242 241 273 227 208 189 184 182 188 187 185 168 174 189 179 178 185 190 213 205 172 164 186 187 152 172 191 196 193
252 194 227 240 249 267 267 239 266 229 228 241 226 222 211 213 215 202 205 222 218 241 257 277 214 184 183 181 181 182 179 169 164 194 181 191 190 206 208 230 176 175 173 167 178 176 199 198 202
228 272 285 245 266 268 297 354 175 226 249 285 230 227 222 216 208 218 194 215 214 227 248 261 225 199 190 195 191 184 186 178 190 198 199 179 184 196 200 211 174 184 188 176 196 193 212 204 201
247 266 274 243 293 228 322 342 313 220 272 259 218 231 217 217 214 195 189 201 220 217 238 244 224 210 198 203 201 197 205 203 203 200 180 182 180 179 185 181 199 201 194 200 209 208 218 223 216
227 241 243 177 151 283 302 344 256 189 245 241 266 255 217 203 203 199 190 193 212 217 232 248 231 220 209 207 202 200 203 206 198 186 203 202 206 192 184 185 198 211 219 225 222 214 214 219 224
246 269 246 265 244 221 206 254 246 254 283 242 226 233 215 204 201 204 202 214 214 227 239 260 233 223 216 211 210 209 209 203 205 200 204 197 198 192 200 211 209 218 214 219 223 227 226 230 233
259 275 312 351 17 337 332 279 253 285 258 235 205 205 209 209 203 208 223 220 214 208 254 255 247 249 226 215 209 214 213 211 211 222 208 216 207 221 187 209 219 231 247 243 233 238 236 240 245
13 290 283 35 53 117 23 304 318 274 324 238 234 225 184 209 203 218 225 216 207 204 233 244 252 237 233 225 216 214 215 210 208 210 206 216 234 233 222 222 232 249 225 240 246 234 244 240 247
325 4 329 5 269 180 159 253 306 271 264 118 342 238 200 214 198 213 224 231 212 216 223 228 238 261 257 233 222 220 219 214 217 213 209 219 233 234 217 230 232 228 250 241 241 235 246 252 259